Other Public Products
Issued by NWS Grand Forks, ND

Home | Current Version | Previous Version | Text Only | Print | Product List | Glossary On
Versions: 1 2 3 4 5 6 7 8 9 10 11 12 13 14 15 16 17 18 19 20 21 22 23 24 25 26 27 28 29 30 31 32 33 34 35 36 37 38 39 40 41 42 43 44 45 46 47 48 49 50
000
FPUS83 KFGF 280131
OPUFGF
PRAIRIE TO PINES WEATHER ROUNDUP
NATIONAL WEATHER SERVICE EASTERN NORTH DAKOTA/GRAND FORKS ND
700 PM CST MON FEB 27 2017

 **SATELLITE DATA USED TO AUGMENT SKY COVER AT AUTOMATED STATIONS**
 *****  WEATHER ACROSS EASTERN NORTH DAKOTA  *****

CITY           SKY/WX    TMP DP  RH WIND       PRES   REMARKS
GRAND FORKS    CLOUDY    20  10  65 N16       29.91S WCI   6
GRAND FORKS AF CLOUDY    18  13  82 NE14      29.92R WCI   4
GRAND CITY NWS NOT AVBL
BUXTON         NOT AVBL
DEVILS LAKE    LGT SNOW  15  12  88 NE6       29.89R FOG     WCI   6
FARGO          FAIR      29  22  75 N14       29.83R WCI  18
WAHPETON ARPT  CLOUDY    32  28  86 N9        29.78S WCI  24
$$

 *****  WEATHER ACROSS CENTRAL AND WESTERN NORTH DAKOTA  *****

CITY           SKY/WX    TMP DP  RH WIND       PRES   REMARKS
JAMESTOWN      CLOUDY    25  19  78 NE10      29.82R WCI  15
BISMARCK       CLOUDY    21  16  81 NE10      29.83R WCI  10
MINOT          CLOUDY    10   5  80 N6        29.86R WCI   0
MINOT AFB      CLEAR      9   2  76 N3        29.87R
GARRISON         N/A     11   7  84 NE3       29.84R
WILLISTON      FAIR      13   7  77 E3        29.84R
DICKINSON      CLOUDY    16  12  84 E10       29.74R WCI   4
HETTINGER      CLOUDY    23  17  78 NE12      29.73R WCI  12
$$

 *****  OTHER OBSERVATIONS NORTHEAST NORTH DAKOTA  *****

CITY           SKY/WX    TMP DP  RH WIND       PRES   REMARKS
WALHALLA       NOT AVBL
LANGDON        NOT AVBL
CAVALIER       LGT SNOW  14   9  79 N8        29.96R WCI   3
GRAFTON        LGT SNOW  14  12  92 N9        29.97R WCI   2
CANDO          NOT AVBL
FORT TOTTEN      N/A     15  14  98 NE3       29.95S
ROLLA          FLURRIES  10   7  85 NE7       29.88R WCI   0
RUGBY            N/A     10   9  92 E7        29.88S WCI   0
 ***** THE ABOVE OBSERVATIONS ARE NON NWS ARE NOT QUALITY
        CONTROLLED AND MAY MIS-REPORT RAIN FOR SNOW...
$$

 *****  OTHER OBSERVATIONS SOUTHEAST NORTH DAKOTA *****

CITY           SKY/WX    TMP DP  RH WIND       PRES   REMARKS
COOPERSTOWN    CLOUDY    19  18  93 NE15      29.86R WCI   5
VALLEY CITY    MIX PCPN  25  23  93 NE14      29.85R WCI  13
OAKES          NOT AVBL
GWINNER        FAIR      32  28  86 N18       29.80R WCI  20
SHEYENNE NWR     N/A     29  23  77 NE13      29.95S WCI  19
BUFFALO        NOT AVBL
WYNDMERE         N/A     34  30  86 VRB9        N/A
 ***** THE ABOVE OBSERVATIONS ARE NON NWS ARE NOT QUALITY
       CONTROLLED AND MAY MIS-REPORT RAIN FOR SNOW...
$$

  *****  WEATHER ACROSS NORTHERN MINNESOTA  *****

CITY           SKY/WX    TMP DP  RH WIND       PRES   REMARKS
FLAG ISLAND    CLOUDY    21  16  79 N9        29.90R WCI  11
WARROAD        LGT SNOW  21  18  86 NW5       29.91R WCI  15
ROSEAU         LGT SNOW  21  18  86 NW6       29.91R WCI  14
HALLOCK        LGT SNOW  16  14  93 N8        29.95R WCI   5
THF RVR FALLS    N/A    N/A N/A N/A MISG        N/A
HALSTAD          N/A     26  19  75 NE17        N/A  WCI  14
FOSSTON        CLOUDY    23  16  74 N10       29.85S WCI  12
BAUDETTE       CLOUDY    23  13  65 N7        29.87R WCI  15
WASKISH        CLOUDY    27  16  63 N3        29.87R
CROOKSTON      CLOUDY    21  19  93 N10       29.91R WCI  10
$$
  *****  WEATHER ACROSS CENTRAL AND WEST MINNESOTA  *****

CITY           SKY/WX    TMP DP  RH WIND       PRES   REMARKS
BEMIDJI        CLOUDY    28  19  69 N5        29.83R WCI  22
PARK RAPIDS    CLOUDY    32  22  66 E3        29.79S
WADENA         FAIR      30  23  74 E6        29.78S WCI  24
DETROIT LAKES  FAIR      32  27  80 CALM      29.80S
MOORHEAD       FAIR      28  23  80 N14       29.84R WCI  17
FERGUS FALLS   FAIR      34  25  69 E6        29.81S
ELBOW LAKE     MOCLDY    33  28  81 SE9       29.76S
MORRIS MN      FAIR      36  28  75 SE9       29.75S
STAPLES        FAIR      28  21  74 CALM      29.80R
WHEATON        CLOUDY    34  30  86 CALM      29.78R
$$
  *****  WEATHER ELSEWHERE ACROSS MINNESOTA  *****

CITY           SKY/WX    TMP DP  RH WIND       PRES   REMARKS
DULUTH         CLOUDY    26  24  92 E17       29.86S WCI  13
INTRNTL FALLS  MOCLDY    25   8  48 NE5       29.87S WCI  19
ELY            MOCLDY    27  18  69 CALM      29.87S
CLOQUET        CLOUDY   N/A N/A N/A E7        29.87R
BRAINERD       FAIR      30  24  78 CALM      29.81S
HIBBING        CLOUDY    29  21  72 SE5       29.84S WCI  24
ALEXANDRIA     FAIR      36  26  67 SE6       29.78R
SAINT CLOUD    FAIR      36  25  64 SE12      29.82F
MINNEAPOLIS    CLOUDY    38  24  57 S6        29.90R
$$

  *****  WEATHER ACROSS SOUTH DAKOTA  *****

CITY           SKY/WX    TMP DP  RH WIND       PRES   REMARKS
SIOUX FALLS    CLOUDY    41  30  65 SE9       29.76S
BROOKINGS      MOCLDY    39  26  59 S13       29.74R
WATERTOWN      FAIR      35  26  69 S6        29.73R
HURON          FAIR      40  28  62 S9        29.71R
SISSETON         N/A     34  30  85 NW9       29.75R
ABERDEEN       CLOUDY    33  26  75 N15       29.76R WCI  23
MITCHELL       FAIR      36  28  73 SE7       29.73R
PIERRE         CLOUDY    39  21  48 N14       29.66R
MOBRIDGE       FAIR      30  23  75 NE15      29.70R WCI  19
RAPID CITY     CLOUDY    34  17  50 NE8       29.62R
$$

  *****  SOME WEATHER IN NEARBY STATES *****

CITY           SKY/WX    TMP DP  RH WIND       PRES   REMARKS
GLASGOW MT     MOCLDY    14   9  80 E10       29.76R WCI   1
GREAT FALLS MT FAIR      18  11  74 E7        29.55S WCI   9
CHEYENNE WY    FLURRIES  28  22  78 NW15G26   29.60R WCI  16
SCOTTSBLUFF NE FAIR      33  26  75 NW12      29.62R WCI  24
OMAHA NE       FAIR      46  28  49 SE8       29.75F
DES MOINES IA  CLOUDY    52  27  38 SE10      29.86R
DAVENPORT IA   MOCLDY    49  31  49 E10       29.96F
CHICAGO IL     CLOUDY    47  34  60 E7        30.06S
EAU CLAIRE WI  MOCLDY    37  21  52 SE7       29.93F
LA CROSSE WI   FAIR      42  30  62 SE8       29.95F
$$

  *****  SOME NATIONAL WEATHER *****

CITY           SKY/WX    TMP DP  RH WIND       PRES   REMARKS
LA GUARDIA NY  MOCLDY    52  28  39 SW8       30.39S
RALEIGH NC     CLOUDY    60  31  33 E3        30.34R
ATLANTA GA     MOCLDY    53  49  86 NE7       30.26R
NEW ORLEANS LA CLOUDY    73  69  87 SE10      30.11R
OKLAHOMA CITY  FAIR      61  59  93 SE16      29.81R
ALBUQUERQUE NM MOCLDY    58  11  15 W16G26    29.83R
SALT LAKE CITY MOCLDY    31  25  78 SE7       29.78S WCI  24
LOS ANGELES CA MOCLDY    55  48  77 W8        29.84R
BOISE ID       FAIR      31  28  89 E13       29.78S WCI  21
SEATTLE WA     LGT SNOW  34  33  96 NE7       29.70R FOG
$$

*** WEATHER ACROSS MANITOBA...SASKATCHEWAN AND ONTARIO ***
                ***ONTARIO***

CITY           SKY/WX    TMP DP  RH WIND       PRES   REMARKS
GERALDTON      PTCLDY    19   9  63 S6        29.93R WCI  11
THUNDER BAY    MOCLDY    25  19  80 CALM      29.97R
SIOUX LOOKOUT  PTCLDY    21   7  53 SW5       29.87R WCI  15
TORONTO        PTCLDY    43  21  42 S5        30.25R
BIG TROUT LK   PTCLDY    -6  -9  84 W3        29.90R
PICKLE LAKE    LGT SNOW  18  14  86 VRB3      29.82R DRFTSNOW
DRYDEN         MOCLDY    21  10  63 SW10      29.87R WCI  10
KENORA         FLURRIES  16  10  79 N9        29.89R WCI   4
$$
                *** MANITOBA***

CITY           SKY/WX    TMP DP  RH WIND       PRES   REMARKS
BRANDON        PTCLDY     0  -8  71 W6        29.91R WCI -12
DAUPHIN        CLEAR      5  -2  72 SW7       29.92R WCI  -7
ISLAND LAKE    CLEAR     -4 -15  59 NW2       29.93S
PILOT MOUND      N/A     10   7  85 E5          N/A  WCI   2
THE PAS        CLOUDY     5  -9  51 SE2       29.88R
THOMPSON       CRYSTALS -17 -24  70 N3        29.93R
WINNIPEG       MOCLDY    12   5  73 NE3       29.97R
LYNN LAKE      CLEAR    -15 -20  76 NW5       29.86R WCI -27
CHURCHILL      CRYSTALS -22 -27  76 NW13G20   29.93R DRFTSNOWWCI -46
GILLAM         CLEAR    -18 -27  63 W7        29.93R WCI -35
$$
                ***SASKATCHEWAN***

CITY           SKY/WX    TMP DP  RH WIND       PRES   REMARKS
ESTEVAN        PTCLDY     5  -2  72 E5        29.86R WCI  -4
KINDERSLEY     PTCLDY    12   1  62 E6        29.70R WCI   3
LLOYDMINSTER   PTCLDY    14   5  67 SW5       29.68R WCI   6
PRINCE ALBERT  PTCLDY    12   1  62 SW7       29.76R WCI   2
REGINA         PTCLDY     7  -2  66 SE10      29.83R WCI  -8
YORKTON        CLEAR      5  -2  72 SE5       29.86R WC


USA.gov is the U.S. government's official web portal to all federal, state and local government web resources and services.